Location: *
(46.1006°N, 1.8394°E)
Time: 20:04:50
(UTC+00:00)

Cosmos 1743 - Pass Details

Date: 20 September 2019
Orbit: 512 x 527 km, 82.6° (Epoch: 16 October)

Event Time Altitude Azimuth Distance (km) Brightness Sun altitude
Rises 18:15:36 0° 201° (SSW) 2,630 6.5 -4.4°
Reaches altitude 10° 18:17:47 10° 207° (SSW) 1,751 5.7 -4.8°
Maximum altitude 18:21:30 47° 282° (WNW) 702 4.0 -5.4°
Drops below altitude 10° 18:25:16 10° 358° (N) 1,774 5.6 -6.1°
Sets 18:27:29 0° 4° (N) 2,670 6.4 -6.4°
